THORAD AGENA D DEB, 44564

Orbit data source: Space-Track

THORAD AGENA D DEB, 44564 is space debris in SSO originally from a launch on Wed, 08 Apr 1970 UTC launched from the Air Force Western Test Range (AFWTR). Debris objects in space refer to the collection of defunct objects orbiting the Earth. Examples of debris include non-operational satellites, rocket bodies, and fragments generated from explosions, collisions, or faulty payload assembly.

Loading next visibility...
Identifier
44564, 1970-025TM
Orbit
SSO
Country
Flag of USUS
Related business
Manufacturer
Unknown
Mission
Spacecraft
Bus & Motor
Unknown
Mass
Unknown
Launch date (UTC)
1970-04-08 (56 years ago)
Launch vehicle
Unknown
Launch site
Air Force Western Test Range (AFWTR)
Object type
Payload
Rocket body
Debris
Shape & HBR
Unknown shape, 0.1 m
Radar Cross Section
Small (<0.1 m²)

Expand to show TLE details & history
Last TLE update: 1 day ago

TLE from 1 day ago
0 THORAD AGENA D DEB
1 44564U 70025TM  25291.87332336  .00007409  00000-0  35156-2 0  9993
2 44564  99.9856 250.7845 0072842 104.8444 282.0987 14.18450212611046
Epoch: 2025-10-18T20:57Z
TLE epoch observation values (Epoch: 2025-10-18T20:57:35.138Z)
Latitude
25.73422°
Longitude
-96.05243°
Altitude
823.031 km
Speed
7.449 km/s
True Right ascension
16h 23m 46s
True Declination
25° 36' 04"
Sunlit
Object was in daylight at epoch
Visualization orbit readout
Latitude
Unknown
Longitude
Unknown
Altitude
Unknown
Speed
Unknown
Apparent Right ascension
Unknown
Apparent Declination
Unknown
Sunlit
N/A
Visualization observer readout
Local Sidereal Time
20:15:19
Azimuth
Unknown
Elevation
Unknown
Doppler factor
Unknown
Orbital elements
Apogee altitude
880.314 km
Perigee altitude
775.335 km
Semi-major axis
7,205.962 km
Eccentricity
0.00728
Inclination
99.9856°
RAAN
250.7845°
Arg. of periapsis
104.8444°
True anomaly
281.281°
Mean anomaly
282.0987°
Eccentric anomaly
281.69°
Mean motion
3.54818 °/min
Orbital period
101.46 mins
BSTAR
0.0035156

Documentation

Showing up to 5 results
|